Location: 22
(39.7117°N, 89.5929°W)
Time: 08:02:11
(UTC-05:00)

A-11 Canister half - Pass Details

Date: 02 February 2023
Orbit: 1526 x 1682 km, 47.3° (Epoch: 01 April)

Event Time Altitude Azimuth Distance (km) Brightness Sun altitude
Exits shadow 05:04:51 - 216° (SW) 3,956 10.8 -23.4°
Reaches altitude 10° 05:05:42 10° 214° (SW) 3,688 10.7 -23.3°
Maximum altitude 05:14:41 56° 139° (SE) 1,762 9.5 -21.5°
Drops below altitude 10° 05:23:43 10° 65° (ENE) 3,723 11.9 -19.8°
Sets 05:26:52 0° 61° (ENE) 4,724 12.5 -19.2°
